sat.trackr.live / text

‹ back to catalog

STARLINK-30924

NORAD 58412 · 2023-180L

PAYLOAD ACTIVE UNKNOWN

§ Identity

Operator
Country
US
Launch date
2023-11-22
Launch site
AFETR
Launch vehicle
Mass (kg)
RCS (m²)

Purposes: comms

External: N2YO · Heavens-Above · Gunter

§ Orbital elements

Epoch: 2026-09-20T22:00:03.000096Z

Period
90.74 min
Inclination
42.9799°
Eccentricity
0.0028139
Mean motion
15.86898198 rev/d
Perigee alt
292.2 km
Apogee alt
329.8 km
Semi-major
6,689.1 km
B*
5.3925e-4
RAAN
201.0659°
Arg perigee
179.7387°
Mean anomaly
34.5220°
Rev number
590

§ Raw data

STARLINK-309241 58412U 23180L   26263.91670139  .00145817  15624-4  53925-3 0  99942 58412  42.9799 201.0659 0028139 179.7387  34.5220 15.86898198  5903

JSON: /api/v1/satellites/58412 · /tle

For live sub-satellite position, see the globe view (requires WebGL).

§ Visibility from observer

Set your observer location to see the next 7 days of passes ≥ 10°. The values pass through the URL so the page stays shareable.

No JS? Fill the form by hand. The geolocation button needs JavaScript.